TimeCDT,TemperatureF,Dew PointF,Humidity,Sea Level PressureIn,VisibilityMPH,Wind Direction,Wind SpeedMPH,Gust SpeedMPH,PrecipitationIn,Events,Conditions,WindDirDegrees,DateUTC
12:00 AM,62.6,60.8,94,29.95,10.0,Calm,Calm,-,N/A,,Mostly Cloudy,0,2013-04-28 05:00:00
12:53 AM,61.0,59.0,93,29.96,10.0,West,6.9,-,N/A,,Overcast,280,2013-04-28 05:53:00
1:12 AM,60.8,59.0,94,29.96,10.0,WNW,6.9,-,N/A,,Overcast,290,2013-04-28 06:12:00
1:53 AM,60.1,59.0,96,29.94,8.0,WNW,5.8,-,N/A,,Overcast,290,2013-04-28 06:53:00
2:53 AM,59.0,57.9,96,29.93,8.0,West,8.1,-,0.00,,Overcast,270,2013-04-28 07:53:00
3:53 AM,57.9,57.0,97,29.93,10.0,West,5.8,-,N/A,,Overcast,280,2013-04-28 08:53:00
4:53 AM,57.0,55.9,96,29.93,10.0,West,4.6,-,N/A,,Overcast,270,2013-04-28 09:53:00
5:09 AM,57.2,55.4,94,29.93,10.0,West,4.6,-,N/A,,Overcast,270,2013-04-28 10:09:00
5:50 AM,57.2,55.4,94,29.95,10.0,West,5.8,-,N/A,,Overcast,280,2013-04-28 10:50:00
5:53 AM,57.0,55.0,93,29.95,10.0,WNW,5.8,-,N/A,,Overcast,290,2013-04-28 10:53:00
6:27 AM,57.2,55.4,94,29.96,10.0,West,4.6,-,N/A,,Overcast,260,2013-04-28 11:27:00
6:53 AM,57.0,55.0,93,29.96,10.0,WSW,4.6,-,N/A,,Overcast,250,2013-04-28 11:53:00
8:05 AM,57.2,55.4,94,29.99,10.0,West,5.8,-,N/A,,Overcast,280,2013-04-28 13:05:00
8:53 AM,59.0,55.0,87,29.98,10.0,NW,4.6,-,N/A,,Overcast,310,2013-04-28 13:53:00
9:41 AM,60.8,55.4,82,29.98,10.0,NW,5.8,-,N/A,,Overcast,310,2013-04-28 14:41:00
9:53 AM,60.1,55.0,83,29.98,10.0,NW,4.6,-,N/A,,Overcast,310,2013-04-28 14:53:00
10:04 AM,60.8,55.4,82,29.98,10.0,NW,9.2,-,N/A,,Overcast,320,2013-04-28 15:04:00
10:35 AM,60.8,55.4,82,29.97,10.0,NW,11.5,-,N/A,,Overcast,310,2013-04-28 15:35:00
10:45 AM,60.8,55.4,82,29.97,10.0,NW,8.1,-,N/A,,Overcast,310,2013-04-28 15:45:00
10:53 AM,60.1,55.0,83,29.97,10.0,WNW,9.2,-,N/A,,Overcast,300,2013-04-28 15:53:00
11:53 AM,61.0,55.0,81,29.98,10.0,WNW,5.8,-,N/A,,Overcast,290,2013-04-28 16:53:00
12:02 PM,62.6,55.4,77,29.98,10.0,NNW,6.9,-,N/A,,Overcast,330,2013-04-28 17:02:00
12:53 PM,63.0,55.9,78,29.98,10.0,NNW,8.1,-,N/A,,Overcast,330,2013-04-28 17:53:00
1:53 PM,63.0,55.0,75,29.98,10.0,NNW,9.2,-,N/A,,Overcast,330,2013-04-28 18:53:00
2:15 PM,62.6,55.4,77,29.98,10.0,NW,8.1,-,N/A,,Overcast,320,2013-04-28 19:15:00
2:53 PM,60.1,54.0,80,29.96,10.0,WNW,8.1,-,N/A,,Overcast,300,2013-04-28 19:53:00
3:53 PM,62.1,54.0,75,29.96,10.0,WSW,4.6,-,N/A,,Overcast,240,2013-04-28 20:53:00
4:53 PM,61.0,54.0,78,29.96,10.0,WNW,5.8,-,N/A,,Overcast,290,2013-04-28 21:53:00
5:53 PM,61.0,53.1,75,29.95,10.0,WNW,6.9,-,N/A,,Mostly Cloudy,300,2013-04-28 22:53:00
6:53 PM,61.0,52.0,72,29.94,10.0,West,4.6,-,N/A,,Clear,280,2013-04-28 23:53:00
7:53 PM,55.0,51.1,86,29.95,10.0,Calm,Calm,-,N/A,,Clear,0,2013-04-29 00:53:00
8:53 PM,51.1,50.0,96,29.96,10.0,Calm,Calm,-,N/A,,Clear,0,2013-04-29 01:53:00
9:53 PM,50.0,48.9,96,29.96,10.0,SSW,3.5,-,N/A,,Clear,210,2013-04-29 02:53:00
10:21 PM,51.8,48.2,88,29.96,2.0,Calm,Calm,-,N/A,,Clear,0,2013-04-29 03:21:00
10:28 PM,50.0,48.2,94,29.96,1.0,Calm,Calm,-,N/A,,Clear,0,2013-04-29 03:28:00
10:44 PM,51.8,50.0,94,29.96,3.0,Calm,Calm,-,N/A,,Clear,0,2013-04-29 03:44:00
10:53 PM,50.0,48.9,96,29.96,9.0,Calm,Calm,-,N/A,,Clear,0,2013-04-29 03:53:00
11:33 PM,48.2,48.2,100,29.97,1.8,Calm,Calm,-,0.01,,Clear,0,2013-04-29 04:33:00
11:41 PM,48.2,46.4,93,29.97,3.0,Calm,Calm,-,0.01,,Clear,0,2013-04-29 04:41:00
11:53 PM,46.9,46.9,100,29.97,1.5,Calm,Calm,-,0.01,,Clear,0,2013-04-29 04:53:00